User: anonymous   Login
Location: Unspecified
(0.0000°N, 0.0000°E)
Time: 04:53:26
(UTC+00:00)
Language:

Tansei-1 - Orbit

View from above orbital plane
View from above orbital plane
View from above satellite
View from above satellite

Ground track
Ground track

The orbit data is extracted from the following two-line orbital elements,

1  4952U 71011A   18344.17669615  .00000074  00000-0  93618-5 0  9994
2  4952  29.6690 339.3894 0079754 253.9722 185.2302 13.58478480375357
Epoch (UTC): 10 December 2018 04:14:26
Eccentricity: 0.0079754
inclination: 29.6690°
perigee height: 982 km
apogee height: 1100 km
right ascension of ascending node: 339.3894°
argument of perigee: 253.9722°
revolutions per day: 13.58478480
mean anomaly at epoch: 185.2302°
orbit number at epoch: 37535

The dashed part of the orbit path shows where the satellite is in the earth's shadow,  

DLR